Appleton, WI

7:58 PM CST on December 06, 2019 (GMT -0600)
Outagamie County Regional

Weather History for KATW - August, 2019

Change the Weather History Date:

Tuesday, August 13, 2019

  Actual Average Record
Temperature  
Mean Temperature 68 °F -  
Max Temperature 73 °F 80 °F 93 °F (1988)
Min Temperature 62 °F 61 °F 46 °F (2004)
Cooling Degree Days 2    
Growing Degree Days 18 (Base 50)    
Moisture  
Dew Point 57 °F    
Average Humidity 75    
Maximum Humidity 100    
Minimum Humidity 41    
Precipitation  
Precipitation 0.00 in - - ()
Sea Level Pressure  
Sea Level Pressure 29.89 in    
Wind  
Wind Speed 5 mph (NE)    
Max Wind Speed 13 mph    
Max Gust Speed 17 mph    
Visibility 10 miles    
Events      
Averages and records for this station are not official NWS values.
T = Trace of Precipitation, MM = Missing Value Source: NWS Daily Summary

Daily Weather History Graph

Daily Weather History Graph

Search for Another Location

Airport or City:

Astronomy

Aug. 13, 2019 Rise Set
Actual Time 5:54 AM CDT 8:02 PM CDT
Civil Twilight 5:23 AM CDT 8:33 PM CDT
Nautical Twilight 4:43 AM CDT 9:12 PM CDT
Astronomical Twilight 4:00 AM CDT 9:55 PM CDT
Moon 7:21 PM CDT (8/13) 3:51 AM CDT (8/13)
Length of Visible Light 15h 10m
Length of Day
14h 07m
Waxing Gibbous, 97% of the Moon is Illuminated
Aug 13
Waxing Gibbous
Aug 15
Full
Aug 23
Last Quarter
Aug 30
New
Sep 5
First Quarter

Hourly Weather History & Observations

Time (CDT) Temp. Dew Point Humidity Pressure Visibility Wind Dir Wind Speed Gust Speed Precip Events Conditions
12:15 AM 68.0 °F 59.0 °F 73% 29.84 in 10.0 mi Calm Calm - N/A   Clear
12:35 AM 68.0 °F 59.0 °F 73% 29.84 in 10.0 mi Calm Calm - N/A   Clear
12:55 AM 64.4 °F 59.0 °F 83% 29.85 in 10.0 mi Calm Calm - N/A   Clear
1:55 AM 64.4 °F 62.6 °F 94% 29.84 in 10.0 mi Calm Calm - N/A   Mostly Cloudy
2:15 AM 64.4 °F 62.6 °F 94% 29.85 in 10.0 mi North 4.6 mph - N/A   Overcast
2:35 AM 64.4 °F 62.6 °F 94% 29.84 in 10.0 mi North 4.6 mph - N/A   Mostly Cloudy
2:55 AM 64.4 °F 64.4 °F 100% 29.85 in 10.0 mi North 3.5 mph - N/A   Mostly Cloudy
3:15 AM 64.4 °F 64.4 °F 100% 29.84 in 10.0 mi NNE 5.8 mph - N/A   Overcast
3:35 AM 64.4 °F 64.4 °F 100% 29.84 in 10.0 mi NE 5.8 mph - N/A   Overcast
3:55 AM 64.4 °F 62.6 °F 94% 29.84 in 10.0 mi NNE 6.9 mph - N/A   Mostly Cloudy
4:15 AM 64.4 °F 62.6 °F 94% 29.84 in 10.0 mi NNE 5.8 mph - N/A   Scattered Clouds
4:35 AM 64.4 °F 62.6 °F 94% 29.84 in 10.0 mi NNE 4.6 mph - N/A   Clear
4:55 AM 64.4 °F 62.6 °F 94% 29.85 in 10.0 mi NNE 4.6 mph - N/A   Clear
5:15 AM 64.4 °F 62.6 °F 94% 29.85 in 10.0 mi North 4.6 mph - N/A   Clear
5:20 AM 64.4 °F 62.6 °F 94% 29.86 in 10.0 mi Variable 4.6 mph - N/A   Scattered Clouds
5:45 AM 64.4 °F 64.4 °F 100% 29.86 in 10.0 mi North 4.6 mph - N/A   Scattered Clouds
6:45 AM 66.2 °F 64.4 °F 94% 29.86 in 10.0 mi Variable 5.8 mph - N/A   Scattered Clouds
7:45 AM 68.0 °F 57.2 °F 68% 29.88 in 10.0 mi NNE 6.9 mph - N/A   Scattered Clouds
8:45 AM 69.8 °F 55.4 °F 60% 29.88 in 10.0 mi ENE 10.4 mph - N/A   Mostly Cloudy
9:45 AM 69.8 °F 53.6 °F 56% 29.88 in 10.0 mi NE 10.4 mph - N/A   Mostly Cloudy
10:45 AM 69.8 °F 53.6 °F 56% 29.89 in 10.0 mi ENE 6.9 mph - N/A   Mostly Cloudy
11:45 AM 71.6 °F 53.6 °F 53% 29.91 in 10.0 mi NE 8.1 mph - N/A   Mostly Cloudy
12:45 PM 73.4 °F 48.2 °F 41% 29.90 in 10.0 mi ENE 10.4 mph - N/A   Mostly Cloudy
1:45 PM 66.2 °F 55.4 °F 68% 29.90 in 10.0 mi NNE 10.4 mph - N/A   Mostly Cloudy
2:45 PM 68.0 °F 53.6 °F 60% 29.91 in 10.0 mi NNE 10.4 mph - N/A   Mostly Cloudy
3:45 PM 66.2 °F 53.6 °F 64% 29.91 in 10.0 mi NE 11.5 mph 17.3 mph N/A   Mostly Cloudy
4:45 PM 69.8 °F 53.6 °F 56% 29.91 in 10.0 mi NE 12.7 mph - N/A   Mostly Cloudy
5:45 PM 69.8 °F 53.6 °F 56% 29.91 in 10.0 mi NE 12.7 mph - N/A   Mostly Cloudy
6:45 PM 66.2 °F 50.0 °F 56% 29.93 in 10.0 mi NNE 9.2 mph - N/A   Mostly Cloudy
7:45 PM 66.2 °F 51.8 °F 60% 29.94 in 10.0 mi NNE 8.1 mph - N/A   Mostly Cloudy
8:45 PM 64.4 °F 51.8 °F 64% 29.94 in 10.0 mi NNE 8.1 mph - N/A   Mostly Cloudy
9:45 PM 64.4 °F 51.8 °F 64% 29.95 in 10.0 mi NNE 5.8 mph - N/A   Mostly Cloudy
10:45 PM 64.4 °F 51.8 °F 64% 29.94 in 10.0 mi ENE 5.8 mph - N/A   Mostly Cloudy
10:55 PM 62.6 °F 50.0 °F 63% 29.96 in 10.0 mi NE 4.6 mph - N/A   Overcast
11:15 PM 62.6 °F 50.0 °F 63% 29.96 in 10.0 mi NNE 6.9 mph - N/A   Overcast
11:35 PM 62.6 °F 51.8 °F 68% 29.96 in 10.0 mi NE 5.8 mph - N/A   Overcast
11:55 PM 62.6 °F 50.0 °F 63% 29.97 in 10.0 mi NNE 5.8 mph - N/A   Overcast